NANOSATC-BR1 (40024 NORAD) Tracking and Keplerian Element Data

This shows tracking and keplerian element data for the satellite.

Feedback or suggestion? Click here.




ElementValue
Catalog40024
NameNANOSATC-BR1
Epoch Orbit23995
Epoch Day323.19968702
Epoch Year2018
RAAN240.1102
Inclination97.9085
Eccentricity0.001314
Argument of Perigee35.372
Mean Anonmoly324.8367
Mean Motion14.89689396
Decay Rate4.04E-06
L11 40024U 14033Q 18323.19968702 .00000404 00000-0 48077-4 0 9998
L22 40024 97.9085 240.1102 0013140 35.3720 324.8367 14.89689396239953

Live tracking and technical data element details for NANOSATC-BR1 (NORAD 40024). NANOSATC-BR1 can be tracked NOW for your location showing map with azimuth and elevation plus other details from your city location.

Track the satellite on the map from your city or location and see movement details for azimuth, elevation, latitude, longitude, range, height, and movement on the map or in text.







IsCatalogInMostPopularTable: catalog: 40024, numindb: 116
Update: records affected: 1



GetName: 40024 NANOSATC-BR1

Hit Count: updated at: Mon, 19 Nov 2018 13:24:39 GMT